Location: Izdebno
(52.6670°N, 16.2170°E)
Time: 04:16:11
(UTC+02:00)

SR - Pass Details

Date: 24 February 2024
Orbit: 577 x 862 km, 66.7° (Epoch: 22 April)

Event Time Altitude Azimuth Distance (km) Brightness Sun altitude
Rises 16:52:46 0° 239° (WSW) 3,440 ? 3.6°
Reaches altitude 10° 16:55:22 10° 245° (WSW) 2,495 ? 3.2°
Maximum altitude 17:00:59 48° 320° (NW) 1,082 ? 2.4°
Drops below altitude 10° 17:06:21 10° 34° (NE) 2,385 ? 1.7°
Sets 17:08:48 0° 41° (NE) 3,276 ? 1.3°
